Location: Conway Observatory, Indiana
(41.2910°N, 87.4210°W)
Time: 19:45:23
(UTC-06:00)

Hubble Space Telescope - Visible Passes

Search period start: 15 December 2017 00:00
Search period end: 25 December 2017 00:00
Orbit: 537 x 541 km, 28.5° (Epoch: 15 December)

Date Brightness Start Highest point End Pass type
(mag) Time Alt. Az. Time Alt. Az. Time Alt. Az.
15 Dec 3.5 17:33:50 10° SSW 17:35:35 12° S 17:37:20 10° SSE visible
16 Dec 3.6 17:23:51 10° SSW 17:25:13 11° S 17:26:34 10° S visible
17 Dec 3.8 17:14:21 10° SSW 17:14:50 10° SSW 17:15:19 10° S visible
